Montauk, NY

11:47 PM EDT on May 29, 2017 (GMT -0400)
Montauk

Weather History for KMTP - February, 2013

Change the Weather History Date:

Thursday, February 28, 2013

  Actual Average (KHTO) Record (KHTO)
Temperature  
Mean Temperature 40 °F -  
Max Temperature 44 °F 42 °F 62 °F (1976)
Min Temperature 37 °F 26 °F 2 °F (1934)
Degree Days  
Heating Degree Days 24    
Moisture  
Dew Point 37 °F    
Average Humidity 89    
Maximum Humidity 97    
Minimum Humidity 79    
Precipitation  
Precipitation 0.00 in - - ()
Sea Level Pressure  
Sea Level Pressure 29.60 in    
Wind  
Wind Speed 3 mph (West)    
Max Wind Speed 6 mph    
Max Gust Speed -    
Averages and records for this station are not official NWS values.
T = Trace of Precipitation, MM = Missing Value Source: NWS Daily Summary

Daily Weather History Graph

Daily Weather History Graph

Search for Another Location

Airport or City:

Trip Planner

Search our weather history database for the weather conditions in past years. The results will help you decide how hot, cold, wet, or windy it might be!

Date:

Astronomy

Feb. 28, 2013 Rise Set
Actual Time 6:23 AM EST 5:37 PM EST
Civil Twilight 5:55 AM EST 6:05 PM EST
Nautical Twilight 5:23 AM EST 6:37 PM EST
Astronomical Twilight 4:51 AM EST 7:09 PM EST
Moon 9:03 PM EST (2/28) 7:29 AM EST (2/28)
Length of Visible Light 12h 09m
Length of Day
11h 14m
Waning Gibbous, 91% of the Moon is Illuminated
Feb 28
Waning Gibbous
Mar 4
Last Quarter
Mar 11
New
Mar 19
First Quarter
Mar 27
Full

Hourly Weather History & Observations

Time (EST) Temp. Windchill Dew Point Humidity Pressure Visibility Wind Dir Wind Speed Gust Speed Precip Events Conditions
12:54 AM 39.9 °F 35.8 °F 36.0 °F 86% 29.62 in - West 5.8 mph - N/A   Unknown
1:54 AM 37.9 °F 35.5 °F 36.0 °F 93% 29.62 in - West 3.5 mph - N/A   Unknown
2:54 AM 39.0 °F 35.7 °F 37.0 °F 93% 29.63 in - WSW 4.6 mph - N/A   Unknown
3:54 AM 37.9 °F 35.5 °F 37.0 °F 97% 29.63 in - WSW 3.5 mph - N/A   Unknown
5:54 AM 37.0 °F - 35.1 °F 93% 29.63 in - Calm Calm - N/A   Unknown
6:54 AM 37.9 °F - 36.0 °F 93% 29.63 in - Calm Calm - N/A   Unknown
7:54 AM 39.0 °F - 37.0 °F 93% 29.64 in - Calm Calm - N/A   Unknown
8:54 AM 39.0 °F 36.8 °F 37.0 °F 93% 29.65 in - NE 3.5 mph - N/A   Unknown
9:54 AM 41.0 °F 38.0 °F 37.9 °F 89% 29.63 in - Variable 4.6 mph - N/A   Unknown
10:54 AM 41.0 °F 39.0 °F 37.0 °F 86% 29.63 in - East 3.5 mph - N/A   Unknown
11:54 AM 42.1 °F 40.2 °F 39.0 °F 89% 29.61 in - Variable 3.5 mph - N/A   Unknown
12:54 PM 44.1 °F 42.5 °F 37.9 °F 79% 29.58 in - Variable 3.5 mph - N/A   Unknown
1:54 PM 44.1 °F 42.5 °F 37.9 °F 79% 29.56 in - South 3.5 mph - N/A   Unknown
3:54 PM 42.1 °F - 37.0 °F 82% 29.56 in - Calm Calm - N/A   Unknown
4:54 PM 41.0 °F - 37.0 °F 86% 29.55 in - Calm Calm - N/A   Unknown
5:54 PM 41.0 °F 39.0 °F 37.9 °F 89% 29.55 in - North 3.5 mph - N/A   Unknown
8:54 PM 39.9 °F - 37.9 °F 93% 29.56 in - Calm Calm - N/A   Unknown
9:54 PM 39.9 °F 36.7 °F 37.0 °F 89% 29.56 in - West 4.6 mph - N/A   Unknown
10:54 PM 39.9 °F 35.8 °F 37.0 °F 89% 29.55 in - West 5.8 mph - N/A   Unknown